Regional Weather Roundup
Issued by NWS Sioux Falls, SD

Home | Current Version | Previous Version | Graphics & Text | Print | Product List | Glossary Off
Versions: 1 2 3 4 5 6 7 8 9 10 11 12 13 14 15 16 17 18 19 20 21 22 23 24 25 26 27 28 29 30 31 32 33 34 35 36 37 38 39 40 41 42 43 44 45 46 47 48 49 50

000
ASUS43 KFSD 202102
RWRFSD

WEATHER ROUNDUP FOR SE SOUTH DAKOTA/SW MINNESOTA/NW IOWA
NATIONAL WEATHER SERVICE SIOUX FALLS SD
400 PM CDT WED AUG 20 2014

NOTE: "FAIR" INDICATES FEW OR NO CLOUDS BELOW 12,000 FEET WITH NO
SIGNIFICANT WEATHER AND OR OBSTRUCTIONS TO VISIBILITY.


SDZ038>040-050-052>070-202200-
SOUTHEAST SOUTH DAKOTA

CITY           SKY/WX    TMP DP  RH WIND       PRES   REMARKS
CHAMBERLAIN    PTSUNNY   83  72  71 SE13      29.70F
HURON          CLOUDY    83  68  60 SE13      29.70F
MADISON        FAIR      77  72  83 SE7G16    29.79F
MITCHELL       CLOUDY    81  69  67 S15G29    29.72F
SIOUX FALLS    PTSUNNY   80  68  66 S14       29.78F
WINNER         FAIR      90  67  46 SE10      29.70F
YANKTON        CLOUDY    75  72  88 SE9       29.75F
$$

MNZ071-072-080-081-089-090-097-098-202200-
SOUTHWEST MINNESOTA

CITY           SKY/WX    TMP DP  RH WIND       PRES   REMARKS
FAIRMONT       MOSUNNY   81  66  61 S12       29.84S
JACKSON        PTSUNNY   81  64  57 SE9       29.84S
LUVERNE        SUNNY     81  68  65 S8        29.80S
MARSHALL       MOSUNNY   82  66  57 SE15      29.79S
MONTEVIDEO     MOSUNNY   81  70  69 S9G17     29.81S
PIPESTONE      MOSUNNY   79  70  73 S9        29.81F
REDWOOD FALLS  PTSUNNY   86  66  51 SE13      29.80F
TRACY          PTSUNNY   83  69  62 SE13      29.82S
WINDOM         PTSUNNY   81  68  65 SE9       29.83R
WORTHINGTON    MOSUNNY   81  19  10 S12       29.84F
$$

IAZ001>003-012>014-020>022-031-032-NEZ013-014-SDZ071-202200-
NORTHWEST IOWA

CITY           SKY/WX    TMP DP  RH WIND       PRES   REMARKS
CHEROKEE       CLOUDY    71  69  92 S9        29.81F
DENISON        CLOUDY    79  73  83 SE7G15    29.81F
ESTHERVILLE    PTSUNNY   76  69  79 S10       29.84S
LE MARS        CLOUDY    72  70  94 S6        29.80F
ORANGE CITY    LGT RAIN  73  66  78 S6        29.81S
SHELDON        MOSUNNY   73  70  88 SE12      29.80F
SIOUX CITY     CLOUDY    75  71  87 SE7       29.79F
SPENCER        PTSUNNY   78  68  71 S10       29.83S
STORM LAKE     CLOUDY    72  72 100 S9        29.85R
$$

ABBREVIATIONS USED IN REMARKS
   TC - TEMPERATURE IN CELSIUS
  WCI - WIND CHILL INDEX
   HX - HEAT INDEX
  VSB - VISIBILITY



USA.gov is the U.S. government's official web portal to all federal, state and local government web resources and services.